Regional Weather Roundup
Issued by NWS

Home | Current Version | Previous Version | Graphics & Text | Print | Product List | Glossary On
Versions: 1 2 3 4 5 6 7 8 9 10 11 12 13 14 15 16 17 18 19 20 21 22 23 24 25 26 27 28 29 30 31 32 33 34 35 36 37 38 39 40 41 42 43 44 45 46 47 48 49 50
003
ASUS45 KSLC 161110
RWRUT

UTAH REGIONAL WEATHER ROUNDUP
NATIONAL WEATHER SERVICE SALT LAKE CITY UT
400 AM MST TUE JAN 16 2018

UTZ001>011-023>025-161200-

NORTHERN UTAH

CITY           SKY/WX    TMP DP  RH WIND       PRES   REMARKS
BRIGHAM CITY   CLEAR     34  22  60 CALM      30.33S
HILL AFB       CLEAR     33  19  56 E20G25    30.30S WCI  21
LOGAN          CLEAR     24  17  74 NE3       30.35R
OGDEN          CLEAR     35  20  54 CALM      30.30R
SALT LAKE CITY PTCLDY    32  28  85 NE3       30.31S
TOOELE VALLEY  PTCLDY    27  25  93 E6        30.31F WCI  20
WENDOVER       PTCLDY    25  19  78 CALM      30.30S
HEBER CITY       N/A     23  19  86 SE5       30.35S WCI  17
WEST JORDAN    CLEAR     28  26  93 CALM      30.32S

$$

UTZ011>015-024>027-161200-

CENTRAL/NORTHEAST UTAH

CITY           SKY/WX    TMP DP  RH WIND       PRES   REMARKS
PROVO AIRPORT  PTCLDY    27  24  89 CALM      30.33R
MOAB/CANYONLAN PTCLDY    27  13  55 CALM      30.35S
DELTA          MOCLDY    28  27  93 CALM      30.29S
PRICE          PTCLDY    28  17  63 W3        30.34S
ROOSEVELT      PTCLDY    23  14  68 CALM      30.47S
VERNAL         MOCLDY    16   9  74 W5        30.44S WCI   9

$$

UTZ013>016-019>022-027-161200-

SOUTHERN UTAH

CITY           SKY/WX    TMP DP  RH WIND       PRES   REMARKS
BRYCE CANYON   MOCLDY    19  17  92 W6        30.32S WCI  11
CEDAR CITY     MOCLDY    28  26  92 S5        30.27R WCI  23
MILFORD        MOCLDY    25  22  88 CALM      30.28S
ST GEORGE      MOSUNNY   41  34  76 E3        30.24S
HANKSVILLE     CLOUDY    21  16  79 CALM      30.40S
KANAB          CLEAR     37  25  60 N8        30.33R WCI  31
BLANDING         N/A     24  17  75 N6        30.37S WCI  17

$$

REGIONAL REPORTS     COLORADO/ARIZONA

CITY           SKY/WX    TMP DP  RH WIND       PRES   REMARKS
CRAIG, CO      CLEAR     -2  -8  76 CALM      30.46F
GRAND JUNCTION PTCLDY    20  13  74 CALM      30.38F
RIFLE, CO      CLEAR     18  13  80 CALM      30.43R
MONTROSE, CO   CLEAR     18  14  84 SE9       30.42S WCI   7
CORTEZ, CO     CLEAR     18  14  84 E3        30.30S
COLORADO CITY    N/A     45  27  49 NE15G21   30.27F
PAGE, AZ       CLOUDY    36  28  73 SW3       30.30R
GRAND CANYON   CLOUDY    39  21  48 E12       30.28S WCI  32
KINGMAN, AZ    MOCLDY    43  33  68 NE6       30.17R
FLAGSTAFF, AZ  CLOUDY    26  22  84 CALM      30.27S

$$

REGIONAL REPORTS    NEVADA/IDAHO/WYOMING

CITY           SKY/WX    TMP DP  RH WIND       PRES   REMARKS
LAS VEGAS, NV  MOCLDY    51  41  68 SW3       30.16R
ELY, NY        MOCLDY    21  18  88 S9        30.27F WCI  11
ELKO, NV       MOCLDY    28  24  85 E5        30.22S WCI  23
POCATELLO, ID  CLEAR     22  20  92 CALM      30.32S
BURLEY, ID     CLEAR     31  25  78 NE17G23   30.25S WCI  19
FORT BRIDGER,    N/A     10  10 100 E6        30.40S WCI   1
EVANSTON, WY   CLEAR     15  12  88 E7        30.34F WCI   5
ROCK SPRINGS,  MOCLDY    11   4  73 N3        30.40F

$$




USA.gov is the U.S. government's official web portal to all federal, state and local government web resources and services.